Tracking 22779 objects as of 12-Apr-2021
HD Live streaming from Space Station
objects crossing your sky now

INSAT 4A

Track INSAT 4A now!
INSAT 4A is classified as:


NORAD ID: 28911
Int'l Code: 2005-049A
Perigee: 36,084.3 km
Apogee: 36,108.0 km
Inclination: 1.6 °
Period: 1,451.6 minutes
Semi major axis: 42467 km
RCS: 12.5892 m2 (large)
Launch date: December 21, 2005
Source: India (IND)
Launch site: FRENCH GUIANA (FRGUI)
aabbcc
Your satellite tracking list
Your tracking list is empty




NASA's NSSDC Master Catalog

Two Line Element Set (TLE):
1 28911U 05049A   21101.83805285 -.00000262  00000-0  00000-0 0  9994
2 28911   1.5998  94.2048 0002783 349.5053 219.0113  0.99202689 26652
Source of the keplerian elements: AFSPC